Regional Weather Roundup
Issued by NWS

Home | Current Version | Previous Version | Graphics & Text | Print | Product List | Glossary On
Versions: 1 2 3 4 5 6 7 8 9 10 11 12 13 14 15 16 17 18 19 20 21 22 23 24 25 26 27 28 29 30 31 32 33 34 35 36 37 38 39 40 41 42 43 44 45 46 47 48 49 50
000
ASUS43 KOAX 212102
RWRNE

WEATHER ROUNDUP FOR NEBRASKA
NATIONAL WEATHER SERVICE OMAHA NE
300 PM CST TUE NOV 21 2017

NOTES: SATELLITE DATA IS BEING USED TO AUGMENT CLOUD COVER ABOVE
       12000 FEET.
       "FAIR" INDICATES FEW OR NO CLOUDS BELOW 12,000 FEET WITH NO
       SIGNIFICANT WEATHER AND/OR OBSTRUCTIONS TO VISIBILITY.


NEZ001>004-019>022-054>056-212200-
NEBRASKA PANHANDLE

CITY           SKY/WX    TMP DP  RH WIND       PRES   REMARKS
SCOTTSBLUFF    SUNNY     48  24  39 W9        30.28F
ALLIANCE       SUNNY     45  26  47 N9        30.27F
CHADRON        CLOUDY    43  26  51 NW12      30.29F
GORDON         MOCLDY    37  25  63 W6        30.29F WCI  32
KIMBALL        SUNNY     46  26  45 NW8       30.28S
SIDNEY         SUNNY     47  27  45 N8        30.29F
$$

NEZ057>060-069>072-079>082-212200-
SOUTHWEST NEBRASKA

CITY           SKY/WX    TMP DP  RH WIND       PRES   REMARKS
NORTH PLATTE   SUNNY     44  16  32 N13G23    30.32S
IMPERIAL       SUNNY     47  24  40 N15       30.31S
LEXINGTON      SUNNY     42  14  33 N20       30.33R
MCCOOK         SUNNY     46  21  37 N16       30.32S
OGALLALA       SUNNY     45  26  47 NW12      30.31S
$$

NEZ005>010-023>029-035>040-094-212200-
NORTH CENTRAL NEBRASKA

CITY           SKY/WX    TMP DP  RH WIND       PRES   REMARKS
VALENTINE      SUNNY     31   9  39 NW10G22   30.34F WCI  22
AINSWORTH      SUNNY     28   8  44 NW14      30.34F WCI  16
BROKEN BOW     SUNNY     36   9  32 N22       30.33R WCI  25
O`NEILL        SUNNY     26  15  62 NW16G23   30.35S WCI  13
ORD            SUNNY     32   9  38 NW18      30.34R WCI  20
THEDFORD       SUNNY     37  13  38 N18G25    30.32F WCI  27
$$

NEZ041-046>049-061>064-073>077-083>087-212200-
SOUTH CENTRAL NEBRASKA

CITY           SKY/WX    TMP DP  RH WIND       PRES   REMARKS
GRAND ISLAND   SUNNY     34  11  38 N22G28    30.35R WCI  22
AURORA         SUNNY     33  10  39 N23G29    30.34R WCI  20
HASTINGS       SUNNY     36   7  29 N24G33    30.33R WCI  24
HEBRON         SUNNY     38  10  30 N17G32    30.31R WCI  29
HOLDREGE       SUNNY     40  16  37 N17       30.31S WCI  31
KEARNEY        SUNNY     39   9  29 N22       30.33R WCI  29
$$

NEZ011>018-030>034-042>045-212200-
NORTHEAST NEBRASKA

CITY           SKY/WX    TMP DP  RH WIND       PRES   REMARKS
NORFOLK        SUNNY     28  11  48 NW21      30.32R WCI  15
ALBION         SUNNY     30  13  49 NW16G22   30.34S WCI  19
BLAIR          SUNNY     32  14  47 NW16G25   30.29R WCI  21
COLUMBUS       SUNNY     30  13  49 NW24      30.34R WCI  16
FREMONT        SUNNY     32  12  43 NW18G26   30.33R WCI  20
TEKAMAH        SUNNY     32  11  41 NW22      30.32R WCI  19
WAYNE          SUNNY     29   7  38 NW17G25   30.33R WCI  17
$$

NEZ050>053-065>068-078-088>093-212200-
SOUTHEAST NEBRASKA

CITY           SKY/WX    TMP DP  RH WIND       PRES   REMARKS
LINCOLN        SUNNY     35  12  38 N21G30    30.33R WCI  24
OMAHA EPPLEY   SUNNY     33  13  43 NW22G28   30.30R WCI  21
BEATRICE       SUNNY     37  14  39 N20G25    30.31R WCI  26
FALLS CITY     SUNNY     36  15  42 N17G28    30.26R WCI  26
NEBRASKA CITY  SUNNY     34  15  46 N24G30    30.28R WCI  22
$$

NEZ044-045-051>053-067-212200-
OMAHA AREA

CITY           SKY/WX    TMP DP  RH WIND       PRES   REMARKS
OMAHA EPPLEY   SUNNY     33  13  43 NW22G28   30.30R WCI  21
BLAIR          SUNNY     32  14  47 NW16G25   30.29R WCI  21
FREMONT        SUNNY     32  12  43 NW18G26   30.33R WCI  20
MILLARD        SUNNY     34  14  43 NW17G26   30.31R WCI  23
OFFUTT AFB     SUNNY     34  11  39 NW16G23   30.29R WCI  23
WAHOO          FAIR      33  12  41 N18G25    30.32R WCI  22
$$



USA.gov is the U.S. government's official web portal to all federal, state and local government web resources and services.